| time (UTC) | temp C | wind direction | speed KPH | gust KPH | rain 1hr cm | rain 24hr cm | rain mn cm | humidity % | barometer mb |
| 20260507171148 | 11 | 0.0 | 0.0 | 0.00 | 0.00 | 0.00 | 73 | 1015.6 | |
| 20260507170212 | 11 | 0.0 | 0.0 | 0.00 | 0.00 | 0.00 | 72 | 1015.5 | |
| 20260507165208 | 11 | 0.0 | 0.0 | 0.00 | 0.00 | 0.00 | 72 | 1015.6 | |
| 20260507164312 | 11 | 0.0 | 0.0 | 0.00 | 0.00 | 0.00 | 71 | 1015.5 | |
| 20260507163228 | 11 | 0.0 | 0.0 | 0.00 | 0.00 | 0.00 | 71 | 1015.4 | |
| 20260507162212 | 11 | 0.0 | 0.0 | 0.00 | 0.00 | 0.00 | 70 | 1015.5 | |
| 20260507161147 | 11 | 0.0 | 0.0 | 0.00 | 0.00 | 0.00 | 70 | 1015.5 | |
| 20260507160232 | 11 | 0.0 | 0.0 | 0.00 | 0.00 | 0.00 | 71 | 1015.5 | |
| 20260507155208 | 11 | 0.0 | 0.0 | 0.00 | 0.00 | 0.00 | 70 | 1015.6 | |
| 20260507154232 | 11 | 0.0 | 0.0 | 0.00 | 0.00 | 0.00 | 70 | 1015.4 | |
| 20260507153148 | 11 | 0.0 | 0.0 | 0.00 | 0.00 | 0.00 | 70 | 1015.2 | |
| 20260507152232 | 11 | 0.0 | 0.0 | 0.00 | 0.00 | 0.00 | 70 | 1015.1 | |
| 20260507151208 | 11 | 90 | 0.0 | 3.2 | 0.00 | 0.00 | 0.00 | 70 | 1015.1 |
| 20260507150232 | 11 | 90 | 1.6 | 3.2 | 0.00 | 0.00 | 0.00 | 70 | 1014.9 |
| 20260507145148 | 11 | 90 | 1.6 | 4.8 | 0.00 | 0.00 | 0.00 | 70 | 1015.1 |
| 20260507144233 | 11 | 90 | 0.0 | 3.2 | 0.00 | 0.00 | 0.00 | 70 | 1015.1 |
| 20260507143228 | 11 | 90 | 0.0 | 1.6 | 0.00 | 0.03 | 0.00 | 70 | 1015.0 |
| 20260507142212 | 11 | 0.0 | 0.0 | 0.00 | 0.03 | 0.00 | 70 | 1014.9 | |
| 20260507141228 | 11 | 90 | 1.6 | 3.2 | 0.00 | 0.03 | 0.00 | 69 | 1014.9 |
| 20260507140212 | 11 | 90 | 1.6 | 3.2 | 0.00 | 0.03 | 0.00 | 68 | 1014.8 |
| 20260507135147 | 11 | 90 | 4.8 | 6.4 | 0.00 | 0.03 | 0.00 | 67 | 1014.9 |
| 20260507134252 | 11 | 90 | 4.8 | 9.7 | 0.00 | 0.03 | 0.00 | 67 | 1014.8 |
| 20260507133248 | 11 | 90 | 1.6 | 4.8 | 0.00 | 0.03 | 0.00 | 67 | 1014.7 |
| 20260507132312 | 11 | 90 | 1.6 | 3.2 | 0.00 | 0.03 | 0.00 | 69 | 1014.8 |
| 20260507131208 | 11 | 90 | 1.6 | 3.2 | 0.00 | 0.03 | 0.00 | 69 | 1014.6 |
| 20260507130212 | 11 | 90 | 3.2 | 4.8 | 0.00 | 0.03 | 0.00 | 70 | 1014.6 |
| 20260507125248 | 11 | 90 | 3.2 | 4.8 | 0.00 | 0.03 | 0.00 | 70 | 1014.6 |
| 20260507124232 | 11 | 90 | 6.4 | 9.7 | 0.00 | 0.03 | 0.00 | 69 | 1014.7 |
| 20260507123208 | 11 | 90 | 3.2 | 4.8 | 0.00 | 0.03 | 0.00 | 70 | 1014.8 |
| 20260507122232 | 11 | 45 | 4.8 | 8.0 | 0.00 | 0.03 | 0.00 | 70 | 1014.9 |
| 20260507121207 | 10 | 67 | 4.8 | 6.4 | 0.00 | 0.03 | 0.00 | 70 | 1014.6 |
| 20260507120232 | 10 | 90 | 0.0 | 3.2 | 0.00 | 0.03 | 0.00 | 70 | 1014.7 |
| 20260507115308 | 10 | 45 | 4.8 | 6.4 | 0.00 | 0.03 | 0.00 | 71 | 1014.6 |
| 20260507114332 | 10 | 45 | 4.8 | 8.0 | 0.00 | 0.03 | 0.00 | 71 | 1014.5 |
| 20260507113147 | 9 | 45 | 4.8 | 8.0 | 0.00 | 0.03 | 0.00 | 71 | 1014.3 |
| 20260507112212 | 9 | 45 | 8.0 | 11.3 | 0.00 | 0.03 | 0.00 | 72 | 1014.3 |
| 20260507111148 | 9 | 67 | 1.6 | 4.8 | 0.00 | 0.03 | 0.00 | 72 | 1014.5 |
| 20260507110212 | 8 | 67 | 3.2 | 4.8 | 0.00 | 0.03 | 0.00 | 72 | 1014.3 |
| 20260507105227 | 8 | 90 | 8.0 | 11.3 | 0.00 | 0.03 | 0.00 | 73 | 1014.3 |
| 20260507104345 | 8 | 90 | 4.8 | 9.7 | 0.00 | 0.03 | 0.00 | 74 | 1014.3 |
| 20260507103148 | 8 | 90 | 8.0 | 9.7 | 0.00 | 0.03 | 0.00 | 75 | 1014.3 |
| 20260507102233 | 8 | 90 | 4.8 | 8.0 | 0.00 | 0.03 | 0.00 | 75 | 1014.0 |
| 20260507101148 | 8 | 90 | 8.0 | 9.7 | 0.00 | 0.03 | 0.00 | 76 | 1014.0 |
| 20260507100233 | 8 | 90 | 6.4 | 9.7 | 0.00 | 0.03 | 0.00 | 76 | 1014.0 |
| 20260507095229 | 8 | 90 | 8.0 | 14.5 | 0.00 | 0.03 | 0.00 | 78 | 1013.7 |
| 20260507094212 | 8 | 90 | 4.8 | 8.0 | 0.00 | 0.03 | 0.00 | 78 | 1013.6 |
| 20260507093209 | 8 | 90 | 3.2 | 6.4 | 0.00 | 0.03 | 0.00 | 76 | 1013.6 |
| 20260507092353 | 8 | 90 | 4.8 | 8.0 | 0.00 | 0.03 | 0.00 | 75 | 1013.3 |
| 20260507091208 | 8 | 90 | 3.2 | 4.8 | 0.00 | 0.05 | 0.00 | 73 | 1013.2 |
| 20260507090253 | 8 | 90 | 0.0 | 3.2 | 0.00 | 0.05 | 0.00 | 73 | 1013.1 |
| 20260507085148 | 8 | 90 | 4.8 | 9.7 | 0.00 | 0.08 | 0.00 | 74 | 1013.1 |
| 20260507084233 | 8 | 90 | 1.6 | 3.2 | 0.00 | 0.08 | 0.00 | 74 | 1012.8 |
| 20260507083148 | 8 | 90 | 4.8 | 6.4 | 0.00 | 0.10 | 0.00 | 74 | 1012.8 |
| 20260507082253 | 8 | 90 | 4.8 | 6.4 | 0.00 | 0.13 | 0.00 | 75 | 1012.9 |
| 20260507080212 | 8 | 90 | 4.8 | 6.4 | 0.00 | 0.20 | 0.00 | 75 | 1012.6 |
| 20260507075209 | 8 | 90 | 8.0 | 9.7 | 0.00 | 0.23 | 0.00 | 74 | 1012.5 |
| 20260507074313 | 8 | 90 | 9.7 | 14.5 | 0.00 | 0.28 | 0.00 | 74 | 1012.3 |
| 20260507073309 | 8 | 90 | 8.0 | 12.9 | 0.00 | 0.30 | 0.00 | 74 | 1012.2 |
| 20260507072313 | 8 | 90 | 3.2 | 6.4 | 0.00 | 0.38 | 0.00 | 75 | 1012.0 |
| 20260507071148 | 8 | 90 | 3.2 | 4.8 | 0.00 | 0.46 | 0.00 | 74 | 1012.0 |
| 20260507070212 | 8 | 90 | 8.0 | 9.7 | 0.00 | 0.56 | 0.00 | 75 | 1011.8 |
| 20260507065148 | 8 | 90 | 8.0 | 14.5 | 0.00 | 0.64 | 0.00 | 75 | 1012.0 |
| 20260507064232 | 8 | 45 | 4.8 | 6.4 | 0.00 | 0.74 | 0.00 | 76 | 1011.7 |
| 20260507063148 | 7 | 90 | 4.8 | 8.0 | 0.00 | 0.86 | 0.00 | 77 | 1011.9 |
| 20260507062252 | 7 | 45 | 3.2 | 4.8 | 0.00 | 0.94 | 0.00 | 78 | 1011.7 |
| 20260507061148 | 7 | 45 | 4.8 | 9.7 | 0.00 | 1.02 | 0.00 | 79 | 1011.5 |
| 20260507060212 | 7 | 45 | 3.2 | 4.8 | 0.00 | 1.04 | 0.00 | 79 | 1011.3 |
| 20260507055309 | 7 | 45 | 4.8 | 9.7 | 0.00 | 1.07 | 0.00 | 80 | 1011.3 |
| 20260507054212 | 7 | 45 | 0.0 | 1.6 | 0.00 | 1.07 | 0.00 | 80 | 1011.2 |
| 20260507053229 | 7 | 45 | 4.8 | 9.7 | 0.00 | 1.09 | 0.00 | 80 | 1011.2 |
| 20260507052232 | 7 | 67 | 4.8 | 8.0 | 0.00 | 1.09 | 0.00 | 80 | 1011.0 |
| 20260507051229 | 7 | 45 | 4.8 | 4.8 | 0.00 | 1.09 | 0.00 | 80 | 1011.1 |
| 20260507050212 | 7 | 45 | 4.8 | 4.8 | 0.00 | 1.12 | 0.00 | 80 | 1010.7 |
| 20260507045148 | 7 | 45 | 3.2 | 4.8 | 0.00 | 1.12 | 0.00 | 80 | 1010.8 |
| 20260507044212 | 7 | 45 | 6.4 | 9.7 | 0.00 | 1.12 | 0.00 | 81 | 1010.4 |
| 20260507043148 | 7 | 45 | 4.8 | 4.8 | 0.00 | 1.17 | 0.00 | 81 | 1010.4 |
| 20260507042212 | 7 | 45 | 1.6 | 4.8 | 0.00 | 1.19 | 0.00 | 81 | 1010.5 |
| 20260507041148 | 7 | 45 | 4.8 | 9.7 | 0.00 | 1.22 | 0.00 | 81 | 1010.3 |
| 20260507040300 | 7 | 67 | 0.0 | 1.6 | 0.00 | 1.24 | 0.00 | 81 | 1010.1 |
| 20260507035148 | 7 | 67 | 4.8 | 8.0 | 0.00 | 1.27 | 0.00 | 81 | 1010.0 |
| 20260507034212 | 7 | 90 | 3.2 | 4.8 | 0.00 | 1.27 | 0.00 | 81 | 1009.9 |
| 20260507033148 | 7 | 90 | 3.2 | 6.4 | 0.00 | 1.30 | 0.00 | 81 | 1009.9 |
| 20260507032212 | 7 | 90 | 1.6 | 3.2 | 0.00 | 1.35 | 0.00 | 81 | 1009.9 |
| 20260507031228 | 7 | 90 | 4.8 | 11.3 | 0.00 | 1.40 | 0.00 | 81 | 1009.8 |
| 20260507030212 | 7 | 90 | 4.8 | 9.7 | 0.00 | 1.45 | 0.00 | 81 | 1009.6 |
| 20260507025148 | 7 | 90 | 4.8 | 4.8 | 0.00 | 1.50 | 0.00 | 81 | 1009.6 |
| 20260507024212 | 7 | 45 | 1.6 | 3.2 | 0.00 | 1.55 | 0.00 | 81 | 1009.7 |
| 20260507023148 | 7 | 45 | 3.2 | 4.8 | 0.00 | 1.63 | 0.00 | 80 | 1009.7 |
| 20260507021148 | 7 | 45 | 4.8 | 4.8 | 0.00 | 1.78 | 0.00 | 80 | 1009.5 |
| 20260507020232 | 7 | 45 | 4.8 | 8.0 | 0.00 | 1.85 | 0.00 | 80 | 1009.2 |
| 20260507015148 | 7 | 45 | 12.9 | 14.5 | 0.00 | 1.91 | 0.00 | 81 | 1009.4 |
| 20260507014233 | 7 | 45 | 6.4 | 9.7 | 0.00 | 1.93 | 0.00 | 80 | 1009.5 |
| 20260507013229 | 7 | 45 | 3.2 | 6.4 | 0.00 | 2.01 | 0.00 | 81 | 1009.4 |
| 20260507012232 | 7 | 45 | 8.0 | 9.7 | 0.00 | 2.03 | 0.00 | 81 | 1009.4 |
| 20260507011209 | 7 | 45 | 0.0 | 1.6 | 0.00 | 2.06 | 0.00 | 81 | 1009.3 |
| 20260507010212 | 7 | 45 | 3.2 | 4.8 | 0.00 | 2.08 | 0.00 | 81 | 1008.9 |
| 20260507005228 | 7 | 45 | 1.6 | 4.8 | 0.00 | 2.11 | 0.00 | 81 | 1009.1 |
| 20260507004213 | 7 | 45 | 1.6 | 4.8 | 0.00 | 2.11 | 0.00 | 81 | 1008.9 |
| 20260507003148 | 7 | 45 | 4.8 | 8.0 | 0.00 | 2.16 | 0.00 | 80 | 1008.9 |
| 20260507001148 | 7 | 45 | 8.0 | 9.7 | 0.00 | 2.18 | 0.00 | 81 | 1008.8 |
| 20260507000212 | 7 | 45 | 4.8 | 8.0 | 0.00 | 2.18 | 0.00 | 81 | 1008.9 |
| 20260506235148 | 7 | 45 | 4.8 | 8.0 | 0.00 | 2.18 | 0.00 | 81 | 1008.7 |
| 20260506234212 | 8 | 45 | 4.8 | 9.7 | 0.00 | 2.18 | 0.00 | 81 | 1008.9 |
| 20260506233208 | 8 | 45 | 4.8 | 6.4 | 0.00 | 2.21 | 0.00 | 81 | 1008.7 |
| 20260506232300 | 8 | 67 | 4.8 | 9.7 | 0.00 | 2.21 | 0.00 | 81 | 1008.9 |
| 20260506231148 | 8 | 45 | 8.0 | 11.3 | 0.00 | 2.21 | 0.00 | 82 | 1008.7 |
| 20260506230212 | 9 | 45 | 4.8 | 6.4 | 0.00 | 2.21 | 0.00 | 82 | 1008.6 |
| 20260506225148 | 9 | 45 | 9.7 | 14.5 | 0.00 | 2.21 | 0.00 | 82 | 1008.3 |
| 20260506224233 | 9 | 45 | 4.8 | 6.4 | 0.00 | 2.21 | 0.00 | 82 | 1008.0 |
| 20260506223148 | 10 | 45 | 14.5 | 17.7 | 0.00 | 2.21 | 0.00 | 83 | 1008.0 |
| 20260506222232 | 10 | 45 | 3.2 | 8.0 | 0.00 | 2.21 | 0.00 | 83 | 1008.0 |
| 20260506221249 | 10 | 45 | 4.8 | 9.7 | 0.00 | 2.21 | 0.00 | 83 | 1008.0 |
| 20260506220313 | 10 | 45 | 6.4 | 9.7 | 0.00 | 2.21 | 2.21 | 84 | 1008.1 |
| 20260506215148 | 10 | 45 | 4.8 | 8.0 | 0.00 | 2.21 | 2.21 | 84 | 1008.1 |
| 20260506214213 | 10 | 45 | 4.8 | 8.0 | 0.00 | 2.21 | 2.21 | 85 | 1008.0 |
| 20260506213149 | 10 | 45 | 1.6 | 3.2 | 0.00 | 2.21 | 2.21 | 84 | 1007.9 |
| 20260506212300 | 10 | 45 | 3.2 | 4.8 | 0.00 | 2.21 | 2.21 | 84 | 1007.6 |
| 20260506211148 | 10 | 45 | 6.4 | 9.7 | 0.00 | 2.21 | 2.21 | 85 | 1007.5 |
| 20260506210232 | 10 | 45 | 1.6 | 3.2 | 0.00 | 2.21 | 2.21 | 86 | 1007.6 |
| 20260506205148 | 10 | 45 | 8.0 | 11.3 | 0.00 | 2.21 | 2.21 | 87 | 1007.4 |
| 20260506204232 | 10 | 45 | 4.8 | 6.4 | 0.00 | 2.21 | 2.21 | 88 | 1007.4 |
| 20260506203148 | 10 | 45 | 3.2 | 4.8 | 0.00 | 2.21 | 2.21 | 87 | 1007.5 |
| 20260506202253 | 10 | 45 | 3.2 | 4.8 | 0.00 | 2.21 | 2.21 | 87 | 1007.6 |
| 20260506201229 | 10 | 45 | 1.6 | 4.8 | 0.00 | 2.21 | 2.21 | 87 | 1007.5 |
| 20260506200313 | 10 | 45 | 1.6 | 4.8 | 0.00 | 2.21 | 2.21 | 86 | 1007.3 |
| 20260506195209 | 10 | 0.0 | 1.6 | 0.00 | 2.21 | 2.21 | 86 | 1007.2 | |
| 20260506194253 | 10 | 45 | 4.8 | 8.0 | 0.00 | 2.21 | 2.21 | 86 | 1007.1 |
| 20260506192212 | 10 | 45 | 3.2 | 4.8 | 0.00 | 2.21 | 2.21 | 85 | 1007.1 |
| 20260506191209 | 10 | 45 | 4.8 | 8.0 | 0.00 | 2.21 | 2.21 | 85 | 1007.2 |
| 20260506190253 | 10 | 45 | 0.0 | 1.6 | 0.00 | 2.21 | 2.21 | 84 | 1006.8 |
| 20260506185148 | 10 | 45 | 3.2 | 4.8 | 0.00 | 2.21 | 2.21 | 84 | 1006.7 |
| 20260506184212 | 10 | 45 | 4.8 | 8.0 | 0.00 | 2.21 | 2.21 | 83 | 1006.4 |
| 20260506183148 | 11 | 45 | 1.6 | 4.8 | 0.00 | 2.21 | 2.21 | 83 | 1006.5 |
| 20260506182232 | 11 | 45 | 3.2 | 4.8 | 0.00 | 2.21 | 2.21 | 84 | 1006.4 |
| 20260506181249 | 11 | 45 | 6.4 | 9.7 | 0.00 | 2.21 | 2.21 | 84 | 1006.6 |
| 20260506180212 | 11 | 45 | 3.2 | 4.8 | 0.00 | 2.21 | 2.21 | 84 | 1006.6 |
| 20260506175208 | 11 | 45 | 1.6 | 4.8 | 0.00 | 2.21 | 2.21 | 84 | 1006.3 |
| 20260506174253 | 11 | 45 | 8.0 | 11.3 | 0.00 | 2.21 | 2.21 | 84 | 1006.2 |
| 20260506173148 | 11 | 45 | 1.6 | 3.2 | 0.00 | 2.21 | 2.21 | 84 | 1006.0 |
| 20260506172233 | 12 | 45 | 6.4 | 9.7 | 0.00 | 2.21 | 2.21 | 84 | 1006.3 |